Location: Berchem-Saint-Laurent
(50.7879°N, 4.1977°E)
Time: 17:08:02
(UTC+00:00)

Daily predictions for brighter satellites

Satellite Brightness Start Highest point End
(mag) Time Altitude Azimuth Time Altitude Azimuth Time Altitude Azimuth
NOSS 3-3 (A) 4.0 17:21:46 10° SSW 17:26:47 52° ESE 17:32:44 10° NE
CARTOSAT-1 4.4 17:25:41 10° ESE 17:29:15 28° ENE 17:32:51 10° N
Cosmos 1802 Rocket 4.4 17:27:23 10° NNW 17:33:48 77° W 17:40:12 10° S
Cosmos 2285 Rocket 4.1 17:29:48 10° NNW 17:36:13 63° ENE 17:42:33 10° SE
Cosmos 2233 Rocket 4.0 17:30:24 10° N 17:36:43 76° E 17:43:01 10° SSE
CZ-4 R/B 4.3 17:33:49 10° SSE 17:37:46 72° ENE 17:41:45 10° N
USA 290 2.5 17:34:48 10° SSW 17:37:58 69° WNW 17:41:09 10° NNE
NOSS 0 Rocket 4.0 17:32:32 10° NNW 17:38:50 89° WSW 17:45:05 10° SSE
USA 306 4.2 17:37:58 10° W 17:40:21 21° SW 17:42:08 10° S
ARIANE 6 FM1 Upper Stage 4.0 17:38:46 10° NNW 17:42:00 23° NNE 17:45:04 11° ENE
NOSS 3-4 (A) 3.8 17:38:13 10° NW 17:44:40 63° NE 17:52:17 10° ESE
NOSS 3-4 (C) 3.8 17:38:29 10° NW 17:44:57 62° NE 17:52:34 10° ESE
Cosmos 1725 Rocket 4.5 17:39:15 10° NNW 17:45:27 69° W 17:51:40 10° S
Cosmos 2151 Rocket 3.8 17:44:44 10° NNW 17:49:14 77° W 17:53:44 10° S
Meteor 1-11 4.3 17:46:47 10° S 17:52:25 89° ESE 17:58:13 10° NNE
Radarsat Rocket 4.0 17:49:39 10° SSE 17:55:28 68° ENE 18:01:51 10° NNW
Cosmos 1607 4.0 17:49:42 10° SW 17:55:51 85° NW 18:02:06 10° NE
Cosmos 1455 Rocket 3.3 17:52:44 10° N 17:56:53 45° ENE 18:01:00 10° SSE
Cosmos 44 Rocket 4.3 17:55:22 10° S 17:59:33 28° ESE 18:03:10 13° ENE
Cosmos 2228 3.8 17:56:04 10° N 17:59:44 28° ENE 18:03:24 10° SE
YAOGAN 1 2.5 17:55:36 10° SSE 17:59:51 83° ENE 18:04:08 10° NNW
Cosmos 1975 Rocket 4.1 17:56:46 10° SE 18:00:11 23° E 18:03:36 10° NE
COSMO-SKYMED 1 2.7 17:56:16 10° NNE 18:00:15 46° E 18:04:13 10° S
PSLV R/B 3.5 17:56:39 10° SSE 18:00:39 54° ENE 18:04:40 10° N
ATLAS 2AS CENTAUR R/B 3.9 17:55:07 10° W 18:01:15 32° NNW 18:07:18 10° NE
Cosmos 1782 3.9 17:58:48 10° NNE 18:01:33 20° ENE 18:03:12 15° ESE
Cosmos 2297 Rocket 2.4 17:56:50 10° S 18:02:17 52° ESE 18:07:47 10° NE
Lacrosse 5 rocket 1.9 18:00:16 10° W 18:03:36 40° NNW 18:06:24 14° NE
DNEPR-1 R/B 4.1 17:59:58 10° NW 18:04:36 53° NE 18:10:04 10° ESE
SPOT 1/Viking Rocket 4.3 18:01:52 10° S 18:06:54 57° W 18:11:58 10° NNW
Cosmos 2061 Rocket 4.2 18:00:45 10° NNW 18:07:09 78° W 18:13:26 10° S
Aureole 3 Rocket 2.4 18:03:20 10° N 18:07:24 75° ENE 18:10:38 10° SSE
CZ-2D R/B 3.3 18:05:45 10° SSE 18:09:40 90° SSE 18:13:44 10° NNW
Okean 1 Rocket 3.4 18:07:52 10° NNW 18:12:15 68° W 18:16:34 10° S
SL-16 R/B 4.3 18:07:00 10° N 18:12:22 32° WNW 18:17:44 10° WSW
CZ-4C R/B 2.0 18:09:08 10° SW 18:13:29 72° NW 18:19:11 10° NE
Cosmos 1464 Rocket 4.2 18:10:29 10° N 18:16:40 50° ENE 18:22:46 10° SSE
Okean 2 Rocket 4.0 18:13:11 10° NNW 18:17:29 52° W 18:21:43 10° S
Cosmos 2344 4.3 18:13:26 10° S 18:19:50 28° ESE 18:23:44 18° ENE
Cosmos 2221 Rocket 3.7 18:15:53 10° SSW 18:20:22 81° WNW 18:24:54 10° N
USA 267 3.4 18:15:08 13° ENE 18:21:03 75° NNW 18:27:35 10° WSW
ERS-1 Rocket 4.4 18:22:17 17° ENE 18:22:30 17° NE 18:25:43 10° NNE
SJ-6B 2.7 18:21:15 10° SE 18:24:33 45° ENE 18:27:52 10° N
Cosmos 1980 4.2 18:24:23 10° NW 18:30:00 63° WSW 18:35:34 10° SSE
Cosmos 2263 Rocket 3.1 18:26:23 10° SSE 18:30:53 25° ESE 18:31:44 24° E
Cosmos 1025 Rocket 4.0 18:26:48 10° SSW 18:30:59 50° WNW 18:35:15 10° N
Cosmos 2237 Rocket 2.7 18:29:40 10° NW 18:35:17 63° WSW 18:40:53 10° SSE
Meteor 1-31 Rocket 3.5 18:36:37 29° NE 18:36:37 29° NE 18:39:04 10° N
Meteor 1-27 4.3 18:31:56 10° NNW 18:37:44 84° W 18:43:34 10° S
ADEOS 4.5 18:43:01 27° ENE 18:43:23 27° ENE 18:47:43 10° N
Cosmos 1570 Rocket 3.9 18:38:18 10° SSW 18:43:35 85° ESE 18:48:52 10° NNE
Resurs 01 Rocket 1.7 18:39:30 10° S 18:43:54 77° WSW 18:48:20 10° NNW
SPOT 5 3.2 18:45:52 26° SE 18:48:14 46° ENE 18:53:08 10° N
NOSS 3-3 (C) 4.2 18:45:04 10° WSW 18:50:26 64° NW 18:55:59 14° NE
DMSP B5D1-3 4.4 18:47:30 10° NNE 18:52:39 85° ESE 18:57:46 10° SSW
Tiangong 0.3 18:54:16 10° SSW 18:55:41 14° S 18:55:41 14° S
SL-16 R/B 2.1 18:55:37 10° NNW 19:01:17 70° ENE 19:03:58 32° SE
Cosmos 2227 Rocket 2.1 18:55:59 10° SSW 19:01:32 64° ESE 19:05:16 22° NE
Cosmos 773 Rocket 4.0 18:59:12 10° SSW 19:04:29 84° WNW 19:09:49 10° NNE
Cosmos 1346 Rocket 3.8 19:00:58 10° S 19:02:49 28° S 19:02:49 28° S
Cosmos 2208 Rocket 4.0 18:59:26 10° SSW 19:04:42 89° WNW 19:10:05 10° NNE
Tsikada Rocket 4.2 19:02:38 10° SSE 19:08:23 43° E 19:14:11 10° NNE
CZ-4 R/B 2.5 19:17:56 30° N 19:17:56 30° N 19:19:58 10° N
Okean O Rocket 3.9 19:20:31 13° NNE 19:20:31 13° NNE 19:21:09 10° N
MetOp-B 4.5 19:18:20 44° NE 19:18:20 44° NE 19:23:04 10° N
ARIANE 6 FM1 Upper Stage 2.7 19:17:33 10° NW 19:21:05 68° NNW 19:21:05 68° NNW
CZ-4B R/B 3.3 19:26:08 52° NE 19:26:08 52° NE 19:30:55 10° N
Terra 3.1 19:30:49 29° NNE 19:30:49 29° NNE 19:33:21 10° N
Cosmos 1544 Rocket 3.6 19:25:12 10° NNW 19:29:33 75° W 19:30:03 65° SSW
CZ-4B DEB 4.0 19:29:06 52° SSE 19:30:30 80° ENE 19:35:59 10° NNW
CSL-04 Debris 4.1 19:30:41 32° S 19:33:19 83° WSW 19:38:47 10° NNW
Cosmos 2034 Rocket 4.1 19:28:22 10° NNW 19:34:32 74° W 19:40:42 10° S
Cosmos 1782 4.1 19:33:05 10° NNW 19:36:23 34° W 19:37:19 29° SW
TSX-5 4.2 19:32:11 10° NW 19:37:23 80° WSW 19:37:23 80° WSW
Cosmos 1975 Rocket 4.2 19:33:33 10° SW 19:37:40 42° WNW 19:41:48 10° N
RESURS DK-1 4.2 19:34:03 10° NNW 19:35:40 22° N 19:35:40 22° N
CSL-04 Rocket 3.8 19:35:11 28° S 19:37:58 71° WSW 19:43:16 10° NNW
Cosmos 44 Rocket 3.8 19:35:45 10° SW 19:40:39 60° NW 19:41:49 47° N
Lacrosse 5 rocket 3.0 19:37:50 10° WNW 19:39:50 24° NNW 19:39:50 24° NNW
MOS 1 4.1 19:41:22 74° E 19:41:31 74° ENE 19:47:12 10° NNW
Cosmos 1634 Rocket 3.8 19:35:37 10° N 19:41:59 76° E 19:43:02 62° SE
Cosmos 2297 Rocket 3.6 19:41:21 10° WSW 19:46:32 36° NW 19:51:39 10° NNE
Cosmos 1943 3.4 19:43:32 10° NNW 19:48:32 59° NNE 19:48:32 59° NNE
ATLAS 2AS CENTAUR R/B 3.8 19:48:14 10° NW 19:54:05 29° N 19:55:21 27° NNE
BREEZE-M DEB (TANK) 3.9 19:39:16 10° W 19:55:47 63° S 19:56:30 59° SSE
ERS-1 Rocket 3.7 20:02:08 45° NNW 20:02:08 45° NNW 20:05:36 10° NNW
CZ-4C R/B 3.7 19:58:24 10° WNW 20:02:44 28° NNW 20:04:22 25° NNE
BREEZE-M DEB (TANK) 4.3 19:58:18 10° SW 20:03:18 61° SE 20:04:47 55° ESE
Cosmos 972 Rocket 4.4 19:58:42 10° NNW 20:02:45 58° NW 20:02:45 58° NW
USA 267 3.7 20:02:29 46° NNE 20:03:43 53° N 20:10:02 10° WNW
Cosmos 2279 Rocket 4.1 19:58:11 10° N 20:03:20 62° NNE 20:03:20 62° NNE
Cosmos 2263 Rocket 2.6 20:08:40 10° SW 20:13:31 59° WSW 20:13:31 59° WSW
ADEOS 4.5 20:23:44 45° WNW 20:23:44 45° WNW 20:27:42 10° NNW
Cosmos 2344 3.4 20:25:51 10° SW 20:33:27 74° NW 20:33:47 73° NNW
SL-16 R/B 4.1 20:40:31 10° NW 20:44:51 23° WSW 20:45:53 22° WSW
Cosmos 2227 Rocket 3.8 20:41:03 10° WSW 20:46:00 30° NW 20:47:09 28° NNW
Terra 4.5 21:09:26 16° NW 21:09:26 16° NW 21:10:34 10° NW
ATLAS 2AS CENTAUR R/B 4.4 21:39:47 10° NW 21:42:45 26° NNW 21:42:45 26° NNW
